Weather History for KFSD - April, 2012

Change the Weather History Date:

Sunday, April 15, 2012

  Actual Average Record
Temperature  
Mean Temperature 57 °F 46 °F  
Max Temperature 72 °F 59 °F 89 °F (2002)
Min Temperature 42 °F 34 °F 11 °F (2014)
Degree Days  
Heating Degree Days 8 19  
Month to date heating degree days 209 329  
Since 1 July heating degree days 5687 7174  
Cooling Degree Days 0 0  
Month to date cooling degree days 7 0  
Year to date cooling degree days 21 0  
Growing Degree Days 7 (Base 50)    
Moisture  
Dew Point 49 °F    
Average Humidity 62    
Maximum Humidity 100    
Minimum Humidity 24    
Precipitation  
Precipitation T in 0.11 in 1.28 in (2011)
Month to date precipitation 1.25 1.44  
Year to date precipitation 5.20 4.36  
Snow  
Snow 0.00 in 0.10 in 2.40 in (1953)
Month to date snowfall 0.0 2.8  
Since 1 July snowfall 15.9 42.7  
Snow Depth 0.00 in    
Sea Level Pressure  
Sea Level Pressure 29.32 in    
Wind  
Wind Speed 15 mph (ENE)    
Max Wind Speed 39 mph    
Max Gust Speed 53 mph    
Visibility 6 miles    
Events Fog , Rain    
T = Trace of Precipitation, MM = Missing Value Source: NWS Daily Summary

Daily Weather History Graph

Daily Weather History Graph

Search for Another Location

Airport or City:

Trip Planner

Search our weather history database for the weather conditions in past years. The results will help you decide how hot, cold, wet, or windy it might be!

Date:

Astronomy

Apr. 15, 2012 Rise Set
Actual Time 6:43 AM CDT 8:11 PM CDT
Civil Twilight 6:13 AM CDT 8:40 PM CDT
Nautical Twilight 5:37 AM CDT 9:17 PM CDT
Astronomical Twilight 4:59 AM CDT 9:55 PM CDT
Moon 3:51 AM CDT (4/15) 2:58 PM CDT (4/15)
Length of Visible Light 14h 27m
Length of Day
13h 27m
Waning Crescent, 27% of the Moon is Illuminated
Apr 15
Waning Crescent
Apr 21
New
Apr 29
First Quarter
May 5
Full
May 12
Last Quarter

Hourly Weather History & Observations

Time (CDT) Temp. Windchill Dew Point Humidity Pressure Visibility Wind Dir Wind Speed Gust Speed Precip Events Conditions
12:31 AM 57.2 °F - 55.4 °F 94% 29.45 in 5.0 mi NE 6.9 mph - 0.05 in Rain Rain
12:56 AM 57.0 °F - 55.0 °F 93% 29.38 in 10.0 mi East 13.8 mph - 0.08 in   Mostly Cloudy
1:10 AM 57.2 °F - 55.4 °F 94% 29.37 in 10.0 mi East 12.7 mph - N/A   Overcast
1:13 AM 57.2 °F - 55.4 °F 94% 29.37 in 10.0 mi East 13.8 mph - N/A   Overcast
1:56 AM 57.0 °F - 55.0 °F 93% 29.41 in 10.0 mi SE 4.6 mph - N/A   Overcast
2:38 AM 57.2 °F - 53.6 °F 88% 29.40 in 10.0 mi SE 3.5 mph - N/A   Overcast
2:43 AM 57.2 °F - 53.6 °F 88% 29.39 in 10.0 mi SSE 4.6 mph - N/A   Overcast
2:56 AM 57.0 °F - 53.1 °F 87% 29.36 in 10.0 mi East 4.6 mph - N/A   Mostly Cloudy
3:04 AM 55.4 °F - 53.6 °F 94% 29.37 in 10.0 mi East 4.6 mph - N/A   Scattered Clouds
3:56 AM 54.0 °F - 52.0 °F 93% 29.33 in 10.0 mi East 6.9 mph - N/A   Partly Cloudy
4:56 AM 54.0 °F - 53.1 °F 97% 29.36 in 10.0 mi SSE 8.1 mph - N/A   Mostly Cloudy
5:09 AM 53.6 °F - 53.6 °F 100% 29.36 in 10.0 mi SE 8.1 mph - N/A   Scattered Clouds
5:47 AM 53.6 °F - 51.8 °F 94% 29.36 in 1.5 mi Calm Calm - N/A   Mostly Cloudy
5:56 AM 52.0 °F - 46.9 °F 83% 29.35 in 1.5 mi ESE 5.8 mph - N/A   Mostly Cloudy
6:05 AM 51.8 °F - 50.0 °F 94% 29.35 in 1.5 mi Calm Calm - N/A   Mostly Cloudy
6:12 AM 51.8 °F - 50.0 °F 94% 29.34 in 0.2 mi Calm Calm - N/A Fog Fog
6:16 AM 51.8 °F - 46.4 °F 82% 29.35 in 0.5 mi Calm Calm - N/A Fog Fog
6:22 AM 51.8 °F - 39.2 °F 62% 29.34 in 0.2 mi Calm Calm - N/A Fog Fog
6:38 AM 51.8 °F - 50.0 °F 94% 29.34 in 0.2 mi ESE 5.8 mph - N/A Fog Fog
6:48 AM 51.8 °F - 50.0 °F 94% 29.33 in 0.5 mi East 4.6 mph - N/A Fog Fog
6:56 AM 51.1 °F - 50.0 °F 96% 29.34 in 0.8 mi East 5.8 mph - N/A   Mist
7:17 AM 51.8 °F - 46.4 °F 82% 29.34 in 0.8 mi Calm Calm - N/A   Partly Cloudy
7:49 AM 51.8 °F - 48.2 °F 88% 29.32 in 0.2 mi ENE 4.6 mph - N/A Fog Fog
7:56 AM 51.1 °F - 48.9 °F 92% 29.32 in 0.2 mi ENE 4.6 mph - N/A Fog Fog
8:56 AM 53.1 °F - 53.1 °F 100% 29.33 in 0.2 mi NW 6.9 mph - N/A Fog Fog
9:13 AM 53.6 °F - 53.6 °F 100% 29.32 in 0.5 mi NE 5.8 mph - N/A Fog Fog
9:30 AM 53.6 °F - 53.6 °F 100% 29.32 in 1.0 mi NNW 4.6 mph - N/A   Overcast
9:46 AM 53.6 °F - 53.6 °F 100% 29.32 in 1.8 mi NNE 4.6 mph - N/A   Overcast
9:56 AM 54.0 °F - 53.1 °F 97% 29.31 in 2.5 mi NNE 8.1 mph - N/A   Overcast
10:18 AM 55.4 °F - 53.6 °F 94% 29.31 in 3.0 mi North 5.8 mph - N/A   Overcast
10:56 AM 55.9 °F - 54.0 °F 93% 29.29 in 4.0 mi NNE 8.1 mph - 0.00 in Rain Light Rain
11:56 AM 57.9 °F - 55.0 °F 90% 29.26 in 6.0 mi NE 9.2 mph - 0.00 in   Overcast
12:03 PM 57.2 °F - 55.4 °F 94% 29.27 in 6.0 mi NE 11.5 mph - N/A   Overcast
12:56 PM 61.0 °F - 57.0 °F 87% 29.25 in 10.0 mi ENE 9.2 mph - 0.00 in Rain Light Rain
1:18 PM 64.4 °F - 59.0 °F 83% 29.24 in 10.0 mi NE 10.4 mph - N/A   Overcast
1:44 PM 66.2 °F - 59.0 °F 78% 29.22 in 10.0 mi ENE 13.8 mph - N/A   Mostly Cloudy
1:56 PM 64.9 °F - 59.0 °F 81% 29.22 in 10.0 mi East 8.1 mph - N/A   Mostly Cloudy
2:56 PM 72.0 °F - 48.0 °F 43% 29.18 in 10.0 mi South 20.7 mph 29.9 mph N/A   Scattered Clouds
3:56 PM 70.0 °F - 34.0 °F 27% 29.18 in 10.0 mi South 25.3 mph 34.5 mph N/A   Scattered Clouds
4:56 PM 66.9 °F - 28.0 °F 23% 29.19 in 10.0 mi South 25.3 mph 38.0 mph N/A   Scattered Clouds
5:56 PM 63.0 °F - 35.1 °F 35% 29.21 in 10.0 mi SSW 13.8 mph 29.9 mph N/A   Scattered Clouds
6:56 PM 57.9 °F - 44.1 °F 60% 29.24 in 10.0 mi NW 3.5 mph - N/A   Mostly Cloudy
7:20 PM 51.8 °F - 44.6 °F 76% 29.25 in 10.0 mi North 19.6 mph 29.9 mph 0.00 in Rain Light Rain
7:56 PM 48.9 °F - 43.0 °F 80% 29.28 in 10.0 mi NNE 23.0 mph 34.5 mph 0.00 in Rain Light Rain
8:10 PM 48.2 °F - 42.8 °F 82% 29.27 in 10.0 mi NNE 24.2 mph 34.5 mph 0.00 in Rain Light Rain
8:56 PM 46.9 °F - 41.0 °F 80% 29.31 in 10.0 mi North 29.9 mph 38.0 mph 0.00 in   Overcast
9:56 PM 44.1 °F 33.8 °F 39.0 °F 82% 29.38 in 10.0 mi North 31.1 mph 43.7 mph N/A   Overcast
10:50 PM 42.8 °F 31.0 °F 35.6 °F 76% 29.43 in 10.0 mi North 39.1 mph 52.9 mph N/A   Overcast
10:56 PM 42.8 °F 31.9 °F 35.6 °F 76% 29.44 in 10.0 mi North 32.2 mph 52.9 mph N/A   Overcast
11:56 PM 43.0 °F 31.8 °F 36.0 °F 76% 29.50 in 10.0 mi NNW 34.5 mph 44.9 mph N/A   Overcast